International Virtual Aviation Organisation

Russian Federation and Kazakhstan MCD

 

Карточка аэропорта URKK

Внимание!
Информация на этой странице в стадии наполнения.
Если вы не увидели какой-то информации, или заметили неточность - пожалуйста сообщите нам!
Спасибо!
Команда RU-STAFF
Название аэропортаПашковский
Название аэропорта (англ.)Pashkovskiy
Превышение118 ft. (36 m.)
Координаты45°2.0820000000001', 39°10.218'
Высота перехода900m
Эшелон переходаFL050
Коды ответчика1030-1037
Зона ОрВДРостов-на-Дону РПИ (URRV)
Данные METARURKK 170930Z 11004MPS 080V150 9999 FEW/// 06/M01 Q1031 R05R/CLRD70 NOSIG RMK QFE770
Проноз погоды (TAF)URKK 170757Z 1709/1809 13003G08MPS 9999 SCT030 TEMPO 1709/1718 09006G11MPS FM171800 09003G08MPS 6000 SCT016 TEMPO 1718/1808 0200 FZFG BKN002
NOTAMshow/hide NOTAM
AWOS   TABLE

Информация о ВПП

ВПП Длина ВПП (м.) Покрытие Курс ВПП Частота ILS
05L2200Асфальтобетон46 
23R2200Асфальтобетон226 
05C2400Цементобетон46 
23C3000Железобетон226111.3
05R3000Железобетон46 
23L3000Железобетон226 

Диспетчерские позиции

Позывной Наименование органа УВД Частота
URKK_APPКраснодар-Подход129.6
URKK_R_APPКраснодар-Круг121.3
URKK_TWRКраснодар-Вышка120.6
URKK_GNDКраснодар-Руление119.0



Спутниковое изображение